Main page
Satellite images Climate Cyclones Lightning AirportsFAQ Languages Contact Newsletter About
Weather : Europe Africa North America South America Asia Australia-Oceania Others

, Mae Hong Son, Mae Hong Son Airport

48300

latitude: , longitude: Thailand, elevation: 19-18N m


METAR: VTCH 180200Z 00000KT 7000 FEW020 BKN025 26/23 Q1002 NOSIG